Regional Weather Roundup
Issued by NWS

Home | Current Version | Previous Version | Graphics & Text | Print | Product List | Glossary On
Versions: 1 2 3 4 5 6 7 8 9 10 11 12 13 14 15 16 17 18 19 20 21 22 23 24 25 26 27
000
ASUS45 KCYS 281610
RWRWY

WYOMING REGIONAL WEATHER ROUNDUP
NATIONAL WEATHER SERVICE CHEYENNE WY
1000 AM MDT FRI APR 28 2017

NOTE:  "FAIR" INDICATES FEW OR NO CLOUDS BELOW 12,000 FEET
WITH NO SIGNIFICANT WEATHER AND/OR OBSTRUCTIONS TO VISIBILITY.

WYZ001-281700-
YELLOWSTONE NATIONAL PARK

CITY           SKY/WX    TMP DP  RH WIND       PRES   REMARKS
LK YELLOWSTONE   N/A     29  22  75 VRB5      29.85R WCI  24
W YELLOWSTONE  NOT AVBL

$$
WYZ002>013-054>058-071-098>099-281700-
NORTHERN WYOMING

CITY           SKY/WX    TMP DP  RH WIND       PRES   REMARKS
JACKSON        CLOUDY    32  30  93 NW7       29.82R WCI  26
CODY           LGT SNOW  33  31  92 N18G24    29.88R FOG     WCI  22
GREYBULL       CLOUDY    44  28  53 NW15      29.81R
WORLAND        CLOUDY    41  34  76 NW16      29.80R
SHERIDAN       FLURRIES  36  32  85 E5        29.94R WCI  32
BUFFALO        SNOW      33  30  88 N10       29.90R VSB 1/2 WCI  25
GILLETTE       LGT SNOW  32  31  96 NE20      29.89R WCI  20
HULETT         CLOUDY    36  30  80 E14       29.89R WCI  27
NEWCASTLE      PTSUNNY   37  27  65 E7        29.85R WCI  32

$$
WYZ014>020-022>026-101>103-281700-
CENTRAL WYOMING

CITY           SKY/WX    TMP DP  RH WIND       PRES   REMARKS
BIG PINEY      CLOUDY    35  19  52 N18G26    29.74R WCI  24
PINEDALE       PTSUNNY   32  23  69 NW14      29.74R WCI  22
DUBOIS         CLOUDY    34  21  60 E6        29.74S WCI  29
LANDER         LGT SNOW  32  31  96 N10       29.77R FOG     WCI  24
RIVERTON       LGT SNOW  32  31  96 N17       29.77R VSB 1   WCI  21
CASPER         LGT SNOW  32  31  96 NE15      29.76R VSB 3/4 WCI  22
DOUGLAS        SNOW      31  29  92 E15       29.78R VSB 1/4 WCI  20

$$
WYZ021-027>030-104>119-281700-
SOUTHERN WYOMING

CITY           SKY/WX    TMP DP  RH WIND       PRES   REMARKS
EVANSTON       LGT SNOW  25  23  92 SW15      29.80S VSB 1   WCI  13
ROCK SPRINGS   LGT SNOW  29  23  78 W18       29.75S VSB 3/4 WCI  16
DIXON          LGT SNOW  30  27  86 SW7       29.78S VSB 3/4 WCI  23
RAWLINS        LGT SNOW  30  26  85 N9        29.72R FOG     WCI  22
SARATOGA       CLOUDY    32  23  69 W9        29.72S WCI  24
LARAMIE        CLOUDY    36  23  59 MISG      29.67R
CHEYENNE       FAIR      41  22  46 N20G26    29.67S
TORRINGTON     LGT SNOW  33  32  96 E21       29.74R VSB 3/4 WCI  21
PINE BLUFFS    CLOUDY    43  32  65 NW17G28   29.69R

$$




USA.gov is the U.S. government's official web portal to all federal, state and local government web resources and services.